Regional Weather Roundup
Issued by NWS

Home | Current Version | Previous Version | Text Only | Print | Product List | Glossary On
Versions: 1 2 3 4 5 6 7 8 9 10 11 12 13 14 15 16 17 18 19 20 21 22 23 24 25 26 27 28 29 30 31 32 33 34 35 36 37 38 39 40 41 42 43 44 45 46 47 48
000
ASPQ40 PGUM 110312
RWRPQ
WEATHER ROUNDUP FOR THE MARIANAS AND MICRONESIA
NATIONAL WEATHER SERVICE TIYAN GU
100 PM CHST FRI JUL 11 2014

GUZ001>004-110400-
MARIANA ISLANDS-

CITY           SKY/WX    TMP DP  RH WIND       PRES   REMARKS
GUAM AIRPORT   CLOUDY    81  77  89 NW5       29.85S
ANDERSEN AFB   LGT RAIN  84  75  74 NE9       29.84F HX  92
ROTA AIRPORT   CLOUDY    79  75  89 NE8       29.85S
TINIAN AP      PTSUNNY   84  77  79 NE10      29.81F HX  94
SAIPAN AP      MOSUNNY   86  79  79 E15       29.83F HX  99

$$

PMZ161-110400-
REPUBLIC OF PALAU-

CITY           SKY/WX    TMP DP  RH WIND       PRES   REMARKS
KOROR AP       PTSUNNY   86  82  89 W8        29.81F HX 105
KOROR WSO      PTSUNNY   84  75  74 W8        29.81F HX  92

$$

PMZ171>174-110400-
FEDERATED STATES OF MICRONESIA-

CITY           SKY/WX    TMP DP  RH WIND       PRES   REMARKS
YAP AIRPORT    PTSUNNY   93  79  62 SE8       29.79F HX 110
CHUUK AP       CLOUDY    88  81  79 SW8       29.78F HX 105
POHNPEI AP     CLOUDY    88  79  74 W8        29.78F HX 102
POHNPEI WSO    NOT AVBL
KOSRAE AP      NOT AVBL

$$

PMZ181-110400-
REPUBLIC OF THE MARSHALL ISLANDS-

CITY           SKY/WX    TMP DP  RH WIND       PRES   REMARKS
KWAJALEIN AP   PTSUNNY   86  73  66 E17       29.80F HX  93
MAJURO AP      NOT AVBL
MAJURO WSO     RAIN      79  75  89 E12       29.77F

$$




USA.gov is the U.S. government's official web portal to all federal, state and local government web resources and services.